Regional Weather Roundup
Issued by NWS

Home | Current Version | Previous Version | Text Only | Print | Product List | Glossary Off
Versions: 1 2 3 4 5 6 7 8 9 10 11 12 13 14 15 16 17 18 19 20 21 22 23 24 25 26 27 28 29 30 31 32 33 34 35 36 37 38 39 40 41 42 43 44 45 46 47 48 49 50

000
ASUS43 KDTX 181001
RWRMI
MICHIGAN HOURLY REGIONAL WEATHER ROUNDUP
NATIONAL WEATHER SERVICE DETROIT/PONTIAC MI
500 AM EST THU DEC 18 2014

NOTE: "FAIR" INDICATES FEW OR NO CLOUDS BELOW 12,000 FEET WITH NO
SIGNIFICANT WEATHER AND/OR OBSTRUCTION TO VISIBILITY.

MIZ047>049-052>055-059>063-066>070-074>076-081>083-181100-
SOUTHEAST LOWER MICHIGAN

CITY           SKY/WX    TMP DP  RH WIND       PRES   REMARKS
ADRIAN         CLOUDY    29  21  72 W8        30.21F WCI  21
ALMA           CLOUDY    30  28  92 W7        30.17F WCI  23
ANN ARBOR      CLOUDY    29  21  72 W9        30.18S WCI  20
BAD AXE        CLOUDY    28  25  90 NW8       30.15R WCI  19
CARO           CLOUDY    30  28  92 W6        30.15S WCI  24
DETROIT CITY   CLOUDY    31  22  69 NW6       30.18S WCI  25
DETROIT        CLOUDY    30  22  72 W9        30.19S WCI  22
FLINT          CLOUDY    31  25  78 W10       30.16F WCI  22
GROSSE ILE     CLOUDY    30  23  74 W5        30.18S WCI  25
HILLSDALE      CLOUDY    28  24  84 W9        30.19S WCI  19
HOWELL         CLOUDY    29  24  83 W8        30.16F WCI  21

CITY           SKY/WX    TMP DP  RH WIND       PRES   REMARKS
JACKSON        CLOUDY    28  22  78 W7        30.18F WCI  21
LAMBERTVILLE   CLOUDY    32  23  69 W6        30.21F WCI  26
LANSING        CLOUDY    29  23  78 W7        30.18F WCI  22
LAPEER         CLOUDY    29  26  91 W7        30.15S WCI  22
MASON          CLOUDY    28  23  81 W7        30.18S WCI  21
MONROE         CLOUDY    30  23  74 W6        30.18F WCI  24
MT. CLEMENS    CLOUDY    30  27  90 W8        30.15R WCI  22
PONTIAC        CLOUDY    28  22  78 W9        30.14F WCI  19
PORT HOPE        N/A     28  23  81 NW10      30.14S WCI  19
PORT HURON     CLOUDY    28  27  93 W5        30.16R WCI  23
TRI CITIES     CLOUDY    31  26  82 W6        30.17S WCI  25
TROY           CLOUDY    32  25  75 W8        30.18F WCI  25
SAGINAW HB     CLOUDY    32  30  93 W7        30.16S WCI  26
$$
MIZ043>046-050>051-056>058-064>065-071>073-077>080-181100-
SOUTHWEST LOWER MICHIGAN

CITY           SKY/WX    TMP DP  RH WIND       PRES   REMARKS
BATTLE CREEK   CLOUDY    30  22  72 W9        30.20F WCI  22
BENTON HARBOR  CLOUDY    28  22  78 W5        30.24F WCI  23
BIG RAPIDS     CLOUDY    30  30  99 NW6       30.16F WCI  24
COLDWATER      CLOUDY    28  23  81 W6        30.20F WCI  22
FREMONT        CLOUDY    30  28  90 W6        30.19S WCI  24
HOLLAND        CLOUDY    33  23  66 NW5       30.22F WCI  29
GRAND RAPIDS   CLOUDY    30  24  78 W7        30.20F WCI  23
IONIA          CLOUDY    30  26  84 W9        30.17F WCI  22
KALAMAZOO      CLOUDY    29  22  75 W7        30.21F WCI  22
LUDINGTON      LGT SNOW  32  29  89 N5        30.20F WCI  27
MARSHALL       CLOUDY    28  23  82 W6        30.20S WCI  21
MOUNT PLEASANT CLOUDY    31  27  87 CALM      30.16S
MUSKEGON       CLOUDY    33  26  75 NW10      30.21F WCI  25
SOUTH HAVEN    CLOUDY    31  24  75 W5        30.23F WCI  26
$$
MIZ016>042-181100-
NORTHERN LOWER MICHIGAN

CITY           SKY/WX    TMP DP  RH WIND       PRES   REMARKS
ALPENA         CLOUDY    24  20  84 NW9       30.18R WCI  14
BEAVER ISLAND  CLOUDY    24  20  86 N7        30.23S WCI  16
BELLAIRE       CLOUDY    27  24  86 N6        30.22S WCI  21
CADILLAC       CLOUDY    27  23  87 NW12G20   30.14F WCI  16
CHARLEVOIX     CLOUDY    26  23  89 N9        30.24S WCI  17
FRANKFORT      CLOUDY    30  26  85 N6        30.20F WCI  24
GAYLORD        CLOUDY    21  19  92 VRB5      30.15R WCI  15
GRAYLING       CLOUDY    26  24  93 NW10      30.16S WCI  16
HARBOR SPRINGS CLOUDY    24  20  85 CALM      30.21R
HOUGHTON LAKE  CLOUDY    26  23  88 NW8       30.16R WCI  18
MANISTEE       CLOUDY    30  25  80 N8        30.20F WCI  23
OSCODA         CLOUDY    25  22  89 NW9       30.16S WCI  16
PELLSTON       CLOUDY    24  20  84 N6        30.22R WCI  17
ROGERS CITY    CLOUDY    25  22  90 NW6       30.19R WCI  18
TRAVERSE CITY  CLOUDY    29  25  85 NW6       30.20S WCI  23
$$
MIZ007>008-015-181100-
EASTERN UPPER MICHIGAN

CITY           SKY/WX    TMP DP  RH WIND       PRES   REMARKS
KINROSS        PTCLDY    14  12  92 N8        30.21R WCI   3
MACKINAC ISLAN PTCLDY    21  20  94 N8        30.21R WCI  11
NEWBERRY       CLEAR     17  16  95 N6        30.23R WCI   8
S. S. MARIE    PTCLDY    13   6  74 NW3       30.24R
MUNISING         N/A     29  20  69 NE20      30.26S WCI  16
$$
MIZ004>006-011>014-085-181100-
CENTRAL UPPER MICHIGAN

CITY           SKY/WX    TMP DP  RH WIND       PRES   REMARKS
MANISTIQUE     CLOUDY    23  20  89 N9        30.24S WCI  13
ESCANABA       CLOUDY    27  19  74 N6        30.24F WCI  20
MENOMINEE      CLOUDY    27  19  74 N9        30.25F WCI  17
SAWYER-GWINN   MOCLDY    24  20  85 N7        30.24S WCI  16
$$
MIZ001>003-009>011-084-181100-
WESTERN UPPER MICHIGAN

CITY           SKY/WX    TMP DP  RH WIND       PRES   REMARKS
IRON MOUNTAIN  CLOUDY    24  18  77 N7        30.25S WCI  16
HOUGHTON       PTCLDY     6   2  83 NW5       30.29R WCI  -3
COPPER HARBOR    N/A     26  17  68 E12       30.31R WCI  16
IRONWOOD       CLOUDY    21  19  93 E3        30.27S
$$

ABBREVIATIONS USED IN REMARKS
   TC - TEMPERATURE IN CELSIUS
  WCI - WIND CHILL INDEX
   HX - HEAT INDEX
  VSB - VISIBILITY




USA.gov is the U.S. government's official web portal to all federal, state and local government web resources and services.